TimeMDT,TemperatureF,Dew PointF,Humidity,Sea Level PressureIn,VisibilityMPH,Wind Direction,Wind SpeedMPH,Gust SpeedMPH,PrecipitationIn,Events,Conditions,WindDirDegrees,DateUTC
12:16 AM,50.0,33.8,54,30.08,10.0,Calm,Calm,-,N/A,,Clear,0,2013-06-24 06:16:00
12:36 AM,46.4,33.8,62,30.09,10.0,Calm,Calm,-,N/A,,Clear,0,2013-06-24 06:36:00
12:56 AM,46.4,33.8,62,30.08,10.0,Calm,Calm,-,N/A,,Clear,0,2013-06-24 06:56:00
1:16 AM,42.8,33.8,70,30.08,10.0,Calm,Calm,-,N/A,,Clear,0,2013-06-24 07:16:00
1:36 AM,44.6,32.0,61,30.07,10.0,Calm,Calm,-,N/A,,Clear,0,2013-06-24 07:36:00
1:56 AM,42.8,32.0,66,30.07,10.0,Calm,Calm,-,N/A,,Clear,0,2013-06-24 07:56:00
2:16 AM,41.0,32.0,70,30.07,10.0,Calm,Calm,-,N/A,,Clear,0,2013-06-24 08:16:00
2:36 AM,41.0,32.0,70,30.07,10.0,Calm,Calm,-,N/A,,Clear,0,2013-06-24 08:36:00
2:56 AM,41.0,32.0,70,30.06,10.0,Calm,Calm,-,N/A,,Clear,0,2013-06-24 08:56:00
3:16 AM,41.0,32.0,70,30.07,10.0,Calm,Calm,-,N/A,,Clear,0,2013-06-24 09:16:00
3:35 AM,37.4,32.0,81,30.07,10.0,Calm,Calm,-,N/A,,Clear,0,2013-06-24 09:35:00
3:56 AM,37.4,32.0,81,30.07,10.0,Calm,Calm,-,N/A,,Clear,0,2013-06-24 09:56:00
4:16 AM,37.4,32.0,81,30.07,10.0,Calm,Calm,-,N/A,,Clear,0,2013-06-24 10:16:00
4:35 AM,37.4,33.8,87,30.08,10.0,Calm,Calm,-,N/A,,Clear,0,2013-06-24 10:35:00
4:56 AM,35.6,32.0,87,30.08,10.0,Calm,Calm,-,N/A,,Clear,0,2013-06-24 10:56:00
5:16 AM,35.6,32.0,87,30.09,10.0,Calm,Calm,-,N/A,,Clear,0,2013-06-24 11:16:00
5:36 AM,35.6,32.0,87,30.10,10.0,Calm,Calm,-,N/A,,Clear,0,2013-06-24 11:36:00
5:56 AM,35.6,30.2,81,30.10,10.0,Calm,Calm,-,N/A,,Clear,0,2013-06-24 11:56:00
6:16 AM,35.6,32.0,87,30.11,10.0,Calm,Calm,-,N/A,,Clear,0,2013-06-24 12:16:00
6:35 AM,37.4,32.0,81,30.12,10.0,Calm,Calm,-,N/A,,Clear,0,2013-06-24 12:35:00
6:56 AM,41.0,32.0,70,30.12,10.0,Calm,Calm,-,N/A,,Clear,0,2013-06-24 12:56:00
7:15 AM,41.0,32.0,70,30.12,10.0,Calm,Calm,-,N/A,,Clear,0,2013-06-24 13:15:00
7:36 AM,42.8,33.8,70,30.11,10.0,Calm,Calm,-,N/A,,Clear,0,2013-06-24 13:36:00
7:56 AM,46.4,35.6,66,30.12,10.0,Calm,Calm,-,N/A,,Clear,0,2013-06-24 13:56:00
8:16 AM,46.4,35.6,66,30.12,10.0,Calm,Calm,-,N/A,,Clear,0,2013-06-24 14:16:00
8:36 AM,50.0,33.8,54,30.11,10.0,Calm,Calm,-,N/A,,Clear,0,2013-06-24 14:36:00
8:56 AM,51.8,35.6,54,30.11,10.0,Calm,Calm,-,N/A,,Clear,0,2013-06-24 14:56:00
9:16 AM,53.6,35.6,51,30.11,10.0,Calm,Calm,-,N/A,,Clear,0,2013-06-24 15:16:00
9:36 AM,55.4,33.8,44,30.11,10.0,Calm,Calm,-,N/A,,Clear,0,2013-06-24 15:36:00
9:56 AM,55.4,35.6,47,30.10,10.0,Calm,Calm,-,N/A,,Clear,0,2013-06-24 15:56:00
10:16 AM,55.4,35.6,47,30.10,10.0,Calm,Calm,-,N/A,,Clear,0,2013-06-24 16:16:00
10:36 AM,62.6,32.0,32,30.10,10.0,Calm,Calm,-,N/A,,Clear,0,2013-06-24 16:36:00
10:56 AM,66.2,26.6,23,30.09,10.0,Calm,Calm,-,N/A,,Clear,0,2013-06-24 16:56:00
11:16 AM,71.6,21.2,15,30.08,10.0,WSW,6.9,-,N/A,,Clear,250,2013-06-24 17:16:00
11:36 AM,71.6,19.4,14,30.07,10.0,SW,6.9,-,N/A,,Clear,230,2013-06-24 17:36:00
11:56 AM,73.4,15.8,11,30.06,10.0,SW,5.8,-,N/A,,Clear,230,2013-06-24 17:56:00
12:16 PM,78.8,6.8,6,30.05,10.0,SW,15.0,21.9,N/A,,Clear,230,2013-06-24 18:16:00
12:34 PM,73.4,5.0,7,30.05,10.0,SW,16.1,26.5,N/A,,Clear,220,2013-06-24 18:34:00
12:56 PM,73.4,5.0,7,30.05,10.0,WSW,12.7,24.2,N/A,,Clear,240,2013-06-24 18:56:00
1:16 PM,77.0,1.4,5,30.04,10.0,WSW,13.8,27.6,N/A,,Clear,240,2013-06-24 19:16:00
1:36 PM,78.8,1.4,5,30.04,10.0,WSW,15.0,31.1,N/A,,Clear,240,2013-06-24 19:36:00
1:56 PM,78.8,-0.4,5,30.03,10.0,SW,16.1,31.1,N/A,,Clear,220,2013-06-24 19:56:00
2:16 PM,78.8,-2.2,4,30.03,10.0,SW,12.7,31.1,N/A,,Clear,230,2013-06-24 20:16:00
2:36 PM,78.8,-0.4,5,30.03,10.0,SW,12.7,26.5,N/A,,Clear,230,2013-06-24 20:36:00
2:56 PM,80.6,1.4,5,30.02,10.0,WSW,20.7,27.6,N/A,,Clear,250,2013-06-24 20:56:00
3:16 PM,80.6,3.2,5,30.02,10.0,West,18.4,27.6,N/A,,Clear,260,2013-06-24 21:16:00
3:35 PM,78.8,1.4,5,30.02,10.0,SSW,16.1,28.8,N/A,,Clear,200,2013-06-24 21:35:00
3:56 PM,80.6,5.0,6,30.02,10.0,West,13.8,31.1,N/A,,Clear,260,2013-06-24 21:56:00
4:16 PM,78.8,3.2,5,30.02,10.0,West,10.4,24.2,N/A,,Clear,270,2013-06-24 22:16:00
4:36 PM,78.8,3.2,5,30.01,10.0,SW,13.8,23.0,N/A,,Clear,220,2013-06-24 22:36:00
4:56 PM,77.0,3.2,6,30.02,10.0,SSW,15.0,29.9,N/A,,Clear,210,2013-06-24 22:56:00
5:15 PM,77.0,6.8,7,30.02,10.0,SW,10.4,23.0,N/A,,Clear,230,2013-06-24 23:15:00
5:36 PM,77.0,3.2,6,30.02,10.0,SW,18.4,27.6,N/A,,Clear,230,2013-06-24 23:36:00
5:56 PM,78.8,5.0,6,30.02,10.0,SW,16.1,24.2,N/A,,Clear,230,2013-06-24 23:56:00
6:16 PM,77.0,6.8,7,30.02,10.0,WSW,12.7,24.2,N/A,,Clear,250,2013-06-25 00:16:00
6:36 PM,75.2,8.6,8,30.02,10.0,WSW,20.7,32.2,N/A,,Clear,250,2013-06-25 00:36:00
6:56 PM,71.6,8.6,9,30.03,10.0,WSW,11.5,19.6,N/A,,Clear,240,2013-06-25 00:56:00
7:16 PM,71.6,8.6,9,30.03,10.0,WSW,9.2,-,N/A,,Clear,240,2013-06-25 01:16:00
7:36 PM,69.8,12.2,11,30.03,10.0,SW,6.9,-,N/A,,Clear,220,2013-06-25 01:36:00
7:56 PM,69.8,8.6,9,30.04,10.0,SW,17.3,24.2,N/A,,Clear,230,2013-06-25 01:56:00
8:16 PM,69.8,8.6,9,30.04,10.0,WSW,12.7,17.3,N/A,,Clear,240,2013-06-25 02:16:00
8:36 PM,69.8,8.6,9,30.05,10.0,WSW,11.5,-,N/A,,Scattered Clouds,240,2013-06-25 02:36:00
8:55 PM,69.8,6.8,9,30.06,10.0,SW,11.5,16.1,N/A,,Mostly Cloudy,220,2013-06-25 02:55:00
9:16 PM,69.8,10.4,10,30.07,10.0,WSW,18.4,34.5,N/A,,Scattered Clouds,240,2013-06-25 03:16:00
9:36 PM,69.8,14.0,12,30.08,10.0,WNW,3.5,21.9,N/A,,Scattered Clouds,300,2013-06-25 03:36:00
9:56 PM,68.0,19.4,16,30.09,10.0,Calm,Calm,-,N/A,,Scattered Clouds,0,2013-06-25 03:56:00
10:16 PM,69.8,17.6,14,30.09,10.0,SW,9.2,-,N/A,,Scattered Clouds,230,2013-06-25 04:16:00
10:36 PM,68.0,17.6,15,30.08,10.0,South,3.5,-,N/A,,Scattered Clouds,170,2013-06-25 04:36:00
10:56 PM,64.4,19.4,18,30.08,10.0,Calm,Calm,-,N/A,,Scattered Clouds,0,2013-06-25 04:56:00
11:16 PM,62.6,19.4,19,30.07,10.0,East,3.5,-,N/A,,Mostly Cloudy,90,2013-06-25 05:16:00
11:35 PM,62.6,19.4,19,30.07,10.0,Calm,Calm,-,N/A,,Mostly Cloudy,0,2013-06-25 05:35:00
11:56 PM,62.6,19.4,19,30.07,10.0,SW,3.5,-,N/A,,Scattered Clouds,220,2013-06-25 05:56:00